Location: Newark
(48.7875°N, 2.3928°E)
Time: 22:30:30
(UTC+00:00)

N. Korean satellite - Pass Details

Date: 25 October 2019
Orbit: 456 x 506 km, 97.2° (Epoch: 12 November)

Event Time Altitude Azimuth Distance (km) Brightness Sun altitude
Rises 05:46:21 0° 14° (NNE) 2,573 10.3 -7.1°
Reaches altitude 10° 05:48:25 10° 16° (NNE) 1,694 9.4 -6.8°
Maximum altitude 05:52:04 74° 101° (E) 521 6.9 -6.2°
Drops below altitude 10° 05:55:44 10° 188° (S) 1,703 9.4 -5.6°
Sets 05:57:50 0° 190° (S) 2,587 10.3 -5.2°
